ANZ683M NZWN-NZDN

Flight info

Callsign ANZ683M
Flight time 1h 43m
Altitude 18000
Route ATVEV2Q SABDA Y622 MESIX Y676 IDARA Y814 MIPAK MIPAK4B
Aircraft AT76/M-V/N

Departure

Time 2026-04-23 06:01
Airport Wellington International Airport (NZWN)

Arrival

Time 2026-04-23 07:44
Airport Dunedin International Airport (NZDN)
Time Latitude Longitude Altitude Speed Heading
2026-04-23 05:20 -41.32958 174.81072 17 ft 0 kts 138°
2026-04-23 05:44 -41.32947 174.81059 16 ft 0 kts 147°
2026-04-23 05:48 -41.32933 174.81047 15 ft 4 kts 142°
2026-04-23 05:48 -41.32913 174.81023 14 ft 4 kts 131°
2026-04-23 05:48 -41.32897 174.80995 13 ft 4 kts 119°
2026-04-23 05:48 -41.32885 174.80962 14 ft 4 kts 107°
2026-04-23 05:49 -41.32879 174.80927 12 ft 4 kts 99°
2026-04-23 05:49 -41.32873 174.80893 12 ft 4 kts 121°
2026-04-23 05:49 -41.32867 174.80882 13 ft 0 kts 183°
2026-04-23 05:52 -41.32873 174.80881 12 ft 4 kts 184°
2026-04-23 05:53 -41.32900 174.80879 12 ft 3 kts 181°
2026-04-23 05:53 -41.32918 174.80879 12 ft 2 kts 180°
2026-04-23 05:53 -41.32928 174.80879 12 ft 4 kts 179°
2026-04-23 05:53 -41.32961 174.80865 13 ft 4 kts 230°
2026-04-23 05:54 -41.32971 174.80817 14 ft 6 kts 244°
2026-04-23 05:54 -41.33008 174.80796 16 ft 9 kts 185°
2026-04-23 05:54 -41.33070 174.80793 16 ft 7 kts 176°
2026-04-23 05:54 -41.33078 174.80793 14 ft 1 kts 176°
2026-04-23 05:55 -41.33095 174.80807 15 ft 2 kts 124°
2026-04-23 05:55 -41.33101 174.80823 17 ft 3 kts 112°
2026-04-23 05:55 -41.33074 174.80871 17 ft 15 kts 10°
2026-04-23 05:55 -41.32944 174.80876 12 ft 21 kts 360°
2026-04-23 05:56 -41.32855 174.80882 13 ft 1 kts 356°
2026-04-23 05:56 -41.32830 174.80863 13 ft 4 kts 297°
2026-04-23 05:56 -41.32814 174.80818 13 ft 8 kts 329°
2026-04-23 05:56 -41.32738 174.80815 15 ft 14 kts
2026-04-23 05:57 -41.32631 174.80823 14 ft 17 kts
2026-04-23 05:57 -41.32509 174.80832 17 ft 18 kts
2026-04-23 05:57 -41.32385 174.80839 22 ft 18 kts
2026-04-23 05:57 -41.32261 174.80847 23 ft 18 kts
2026-04-23 05:58 -41.32137 174.80857 27 ft 18 kts
2026-04-23 05:58 -41.32013 174.80864 28 ft 18 kts
2026-04-23 05:58 -41.31880 174.80871 27 ft 19 kts
2026-04-23 05:58 -41.31784 174.80847 27 ft 0 kts 302°
2026-04-23 05:59 -41.31764 174.80790 27 ft 12 kts 276°
2026-04-23 05:59 -41.31802 174.80749 27 ft 4 kts 185°
2026-04-23 05:59 -41.31812 174.80748 27 ft 0 kts 185°
2026-04-23 05:59 -41.31815 174.80747 27 ft 0 kts 184°
2026-04-23 06:00 -41.32002 174.80736 27 ft 58 kts 183°
2026-04-23 06:00 -41.32604 174.80697 19 ft 111 kts 182°
2026-04-23 06:00 -41.33434 174.80622 351 ft 122 kts 182°
2026-04-23 06:01 -41.34291 174.80546 911 ft 124 kts 183°
2026-04-23 06:01 -41.35192 174.80445 1322 ft 136 kts 186°
2026-04-23 06:01 -41.36148 174.80360 1792 ft 141 kts 182°
2026-04-23 06:01 -41.37131 174.80287 2338 ft 140 kts 182°
2026-04-23 06:02 -41.38064 174.79878 2815 ft 146 kts 202°
2026-04-23 06:02 -41.38970 174.79307 3322 ft 140 kts 202°
2026-04-23 06:02 -41.39875 174.78762 3550 ft 152 kts 200°
2026-04-23 06:02 -41.40882 174.78181 3728 ft 163 kts 200°
2026-04-23 06:03 -41.41963 174.77571 3989 ft 170 kts 202°
2026-04-23 06:03 -41.43071 174.76928 4246 ft 176 kts 202°
2026-04-23 06:03 -41.44169 174.76271 4622 ft 174 kts 201°
2026-04-23 06:03 -41.45294 174.75659 4960 ft 175 kts 200°
2026-04-23 06:04 -41.46441 174.75058 5265 ft 177 kts 200°
2026-04-23 06:04 -41.47581 174.74477 5590 ft 176 kts 200°
2026-04-23 06:04 -41.48727 174.73849 5879 ft 178 kts 199°
2026-04-23 06:04 -41.49849 174.73087 6114 ft 183 kts 207°
2026-04-23 06:05 -41.50932 174.72219 6406 ft 184 kts 208°
2026-04-23 06:05 -41.52009 174.71274 6708 ft 185 kts 211°
2026-04-23 06:05 -41.53068 174.70299 6939 ft 187 kts 210°
2026-04-23 06:05 -41.54148 174.69320 7236 ft 186 kts 209°
2026-04-23 06:06 -41.55236 174.68390 7551 ft 184 kts 208°
2026-04-23 06:06 -41.56323 174.67461 7829 ft 185 kts 208°
2026-04-23 06:06 -41.57397 174.66540 8093 ft 186 kts 208°
2026-04-23 06:06 -41.58482 174.65604 8397 ft 184 kts 209°
2026-04-23 06:07 -41.59540 174.64660 8669 ft 186 kts 210°
2026-04-23 06:07 -41.60622 174.63705 8934 ft 187 kts 209°
2026-04-23 06:07 -41.61720 174.62751 9201 ft 188 kts 208°
2026-04-23 06:07 -41.62811 174.61810 9460 ft 189 kts 208°
2026-04-23 06:08 -41.63925 174.60854 9717 ft 190 kts 208°
2026-04-23 06:08 -41.65046 174.59889 9970 ft 191 kts 208°
2026-04-23 06:08 -41.66150 174.58937 10241 ft 191 kts 208°
2026-04-23 06:08 -41.67275 174.57967 10466 ft 192 kts 208°
2026-04-23 06:09 -41.68404 174.56993 10686 ft 193 kts 208°
2026-04-23 06:09 -41.69543 174.56012 10910 ft 194 kts 208°
2026-04-23 06:09 -41.70674 174.55039 11126 ft 195 kts 208°
2026-04-23 06:09 -41.71061 174.54704 11185 ft 196 kts 208°
2026-04-23 06:10 -41.72976 174.53053 11557 ft 197 kts 208°
2026-04-23 06:10 -41.74137 174.52051 11773 ft 198 kts 208°
2026-04-23 06:10 -41.75289 174.51056 11984 ft 199 kts 208°
2026-04-23 06:10 -41.76459 174.50044 12202 ft 200 kts 208°
2026-04-23 06:11 -41.77636 174.49025 12409 ft 201 kts 208°
2026-04-23 06:11 -41.78820 174.48001 12613 ft 202 kts 208°
2026-04-23 06:11 -41.79984 174.46965 12817 ft 204 kts 209°
2026-04-23 06:11 -41.81161 174.45880 13020 ft 205 kts 210°
2026-04-23 06:12 -41.82340 174.44763 13223 ft 206 kts 210°
2026-04-23 06:12 -41.83499 174.43655 13423 ft 207 kts 210°
2026-04-23 06:12 -41.85857 174.41392 13819 ft 208 kts 211°
2026-04-23 06:13 -41.87041 174.40248 14021 ft 209 kts 211°
2026-04-23 06:13 -41.88226 174.39107 14205 ft 210 kts 211°
2026-04-23 06:13 -41.89415 174.37964 14372 ft 211 kts 211°
2026-04-23 06:13 -41.90610 174.36812 14541 ft 212 kts 211°
2026-04-23 06:14 -41.91810 174.35657 14703 ft 212 kts 211°
2026-04-23 06:14 -41.93009 174.34500 14868 ft 213 kts 211°
2026-04-23 06:14 -41.94200 174.33352 15025 ft 214 kts 211°
2026-04-23 06:14 -41.95412 174.32181 15184 ft 214 kts 211°
2026-04-23 06:15 -41.96622 174.31012 15344 ft 215 kts 211°
2026-04-23 06:15 -41.97848 174.29828 15491 ft 215 kts 210°
2026-04-23 06:15 -41.99053 174.28666 15639 ft 216 kts 210°
2026-04-23 06:15 -42.00012 174.27734 15761 ft 216 kts 210°
2026-04-23 06:16 -42.01231 174.26554 15906 ft 217 kts 210°
2026-04-23 06:16 -42.02455 174.25370 16049 ft 217 kts 210°
2026-04-23 06:16 -42.03692 174.24176 16189 ft 218 kts 210°
2026-04-23 06:16 -42.04918 174.22990 16326 ft 218 kts 210°
2026-04-23 06:17 -42.06139 174.21805 16478 ft 218 kts 210°
2026-04-23 06:17 -42.07362 174.20616 16617 ft 218 kts 210°
2026-04-23 06:17 -42.08598 174.19415 16750 ft 218 kts 210°
2026-04-23 06:17 -42.09825 174.18226 16870 ft 219 kts 210°
2026-04-23 06:18 -42.11063 174.17026 16998 ft 219 kts 210°
2026-04-23 06:18 -42.12306 174.15815 17124 ft 220 kts 210°
2026-04-23 06:18 -42.13548 174.14606 17240 ft 220 kts 210°
2026-04-23 06:18 -42.14785 174.13406 17364 ft 221 kts 210°
2026-04-23 06:19 -42.16041 174.12184 17479 ft 222 kts 210°
2026-04-23 06:19 -42.17286 174.10970 17592 ft 222 kts 210°
2026-04-23 06:19 -42.18545 174.09745 17708 ft 222 kts 210°
2026-04-23 06:19 -42.19791 174.08531 17852 ft 221 kts 210°
2026-04-23 06:20 -42.21044 174.07310 17939 ft 223 kts 210°
2026-04-23 06:20 -42.22314 174.06069 17971 ft 227 kts 210°
2026-04-23 06:20 -42.23590 174.04825 17990 ft 231 kts 210°
2026-04-23 06:20 -42.24911 174.03536 17997 ft 234 kts 210°
2026-04-23 06:21 -42.26227 174.02245 17995 ft 237 kts 211°
2026-04-23 06:21 -42.27576 174.00923 17998 ft 240 kts 211°
2026-04-23 06:21 -42.28936 173.99593 18000 ft 242 kts 211°
2026-04-23 06:21 -42.30291 173.98281 17995 ft 243 kts 211°
2026-04-23 06:22 -42.31680 173.96947 17997 ft 245 kts 211°
2026-04-23 06:22 -42.33081 173.95606 17997 ft 246 kts 211°
2026-04-23 06:22 -42.34468 173.94281 17998 ft 247 kts 210°
2026-04-23 06:22 -42.35881 173.92933 17997 ft 248 kts 211°
2026-04-23 06:23 -42.37283 173.91597 18000 ft 249 kts 210°
2026-04-23 06:23 -42.38702 173.90241 17996 ft 249 kts 210°
2026-04-23 06:23 -42.40124 173.88879 17997 ft 249 kts 210°
2026-04-23 06:23 -42.41547 173.87513 17997 ft 250 kts 210°
2026-04-23 06:24 -42.42959 173.86159 17998 ft 250 kts 211°
2026-04-23 06:24 -42.44380 173.84795 17998 ft 250 kts 210°
2026-04-23 06:24 -42.45806 173.83427 17997 ft 250 kts 211°
2026-04-23 06:24 -42.47217 173.82075 18000 ft 250 kts 211°
2026-04-23 06:25 -42.48627 173.80726 18002 ft 250 kts 211°
2026-04-23 06:25 -42.50051 173.79361 18002 ft 250 kts 211°
2026-04-23 06:25 -42.51171 173.78290 18003 ft 250 kts 211°
2026-04-23 06:25 -42.52599 173.76922 18002 ft 250 kts 211°
2026-04-23 06:26 -42.54026 173.75557 17999 ft 251 kts 211°
2026-04-23 06:26 -42.55440 173.74206 17998 ft 251 kts 211°
2026-04-23 06:26 -42.56858 173.72850 17998 ft 251 kts 211°
2026-04-23 06:26 -42.58290 173.71481 17998 ft 251 kts 211°
2026-04-23 06:27 -42.59723 173.70107 17998 ft 251 kts 211°
2026-04-23 06:27 -42.61154 173.68737 18001 ft 251 kts 211°
2026-04-23 06:27 -42.62576 173.67373 18001 ft 251 kts 211°
2026-04-23 06:27 -42.63992 173.66015 18001 ft 251 kts 211°
2026-04-23 06:28 -42.65425 173.64643 18001 ft 251 kts 211°
2026-04-23 06:28 -42.66861 173.63265 18001 ft 251 kts 211°
2026-04-23 06:28 -42.68277 173.61907 18001 ft 251 kts 211°
2026-04-23 06:28 -42.69715 173.60529 18001 ft 251 kts 211°
2026-04-23 06:29 -42.71134 173.59166 18001 ft 251 kts 211°
2026-04-23 06:29 -42.72566 173.57793 18001 ft 251 kts 211°
2026-04-23 06:29 -42.74000 173.56415 18001 ft 251 kts 211°
2026-04-23 06:29 -42.75430 173.55041 18001 ft 251 kts 211°
2026-04-23 06:30 -42.76861 173.53667 18029 ft 250 kts 211°
2026-04-23 06:30 -42.78245 173.52330 18204 ft 243 kts 211°
2026-04-23 06:30 -42.79619 173.50994 18282 ft 241 kts 211°
2026-04-23 06:30 -42.80989 173.49655 18316 ft 242 kts 211°
2026-04-23 06:31 -42.82344 173.48331 18332 ft 242 kts 211°
2026-04-23 06:31 -42.83723 173.46988 18344 ft 242 kts 211°
2026-04-23 06:31 -42.85094 173.45675 18338 ft 241 kts 207°
2026-04-23 06:31 -42.86629 173.44891 18346 ft 233 kts 192°
2026-04-23 06:32 -42.88175 173.44255 18346 ft 235 kts 194°
2026-04-23 06:32 -42.89737 173.43516 18347 ft 237 kts 197°
2026-04-23 06:32 -42.91253 173.42634 18347 ft 240 kts 201°
2026-04-23 06:32 -42.92729 173.41536 18347 ft 243 kts 207°
2026-04-23 06:33 -42.93681 173.40710 18347 ft 244 kts 209°
2026-04-23 06:33 -42.95096 173.39403 18346 ft 246 kts 210°
2026-04-23 06:33 -42.96973 173.37643 18347 ft 246 kts 210°
2026-04-23 06:33 -42.97910 173.36764 18346 ft 247 kts 210°
2026-04-23 06:34 -42.99341 173.35458 18346 ft 246 kts 209°
2026-04-23 06:34 -43.00777 173.34165 18346 ft 247 kts 209°
2026-04-23 06:34 -43.02215 173.32872 18347 ft 247 kts 209°
2026-04-23 06:34 -43.03636 173.31594 18343 ft 247 kts 209°
2026-04-23 06:35 -43.05077 173.30302 18345 ft 247 kts 209°
2026-04-23 06:35 -43.06511 173.29009 18346 ft 247 kts 209°
2026-04-23 06:35 -43.07949 173.27715 18346 ft 247 kts 209°
2026-04-23 06:35 -43.09386 173.26418 18346 ft 247 kts 209°
2026-04-23 06:36 -43.10825 173.25118 18346 ft 247 kts 209°
2026-04-23 06:36 -43.12185 173.23680 18347 ft 249 kts 218°
2026-04-23 06:36 -43.13420 173.22035 18346 ft 251 kts 221°
2026-04-23 06:36 -43.14651 173.20319 18344 ft 251 kts 221°
2026-04-23 06:37 -43.15885 173.18623 18345 ft 251 kts 220°
2026-04-23 06:37 -43.17144 173.16962 18346 ft 250 kts 219°
2026-04-23 06:37 -43.18407 173.15321 18340 ft 250 kts 219°
2026-04-23 06:37 -43.19672 173.13678 18344 ft 250 kts 219°
2026-04-23 06:38 -43.20922 173.12052 18345 ft 250 kts 219°
2026-04-23 06:38 -43.22185 173.10405 18346 ft 250 kts 219°
2026-04-23 06:38 -43.23449 173.08758 18345 ft 250 kts 219°
2026-04-23 06:38 -43.24708 173.07113 18346 ft 250 kts 219°
2026-04-23 06:39 -43.25973 173.05464 18346 ft 249 kts 219°
2026-04-23 06:39 -43.27218 173.03837 18346 ft 249 kts 219°
2026-04-23 06:39 -43.28472 173.02200 18346 ft 249 kts 219°
2026-04-23 06:39 -43.29733 173.00550 18341 ft 249 kts 219°
2026-04-23 06:40 -43.30995 172.98902 18346 ft 249 kts 219°
2026-04-23 06:40 -43.32232 172.97284 18346 ft 249 kts 219°
2026-04-23 06:40 -43.33483 172.95644 18344 ft 249 kts 219°
2026-04-23 06:40 -43.34741 172.93999 18343 ft 249 kts 219°
2026-04-23 06:41 -43.35996 172.92353 18342 ft 249 kts 219°
2026-04-23 06:41 -43.37249 172.90707 18340 ft 249 kts 219°
2026-04-23 06:41 -43.38487 172.89083 18338 ft 249 kts 219°
2026-04-23 06:41 -43.39741 172.87437 18337 ft 249 kts 219°
2026-04-23 06:42 -43.40990 172.85796 18332 ft 249 kts 219°
2026-04-23 06:42 -43.42245 172.84143 18329 ft 248 kts 219°
2026-04-23 06:42 -43.43495 172.82495 18329 ft 248 kts 219°
2026-04-23 06:42 -43.44725 172.80876 18331 ft 248 kts 219°
2026-04-23 06:43 -43.45968 172.79240 18329 ft 247 kts 219°
2026-04-23 06:43 -43.47215 172.77595 18327 ft 247 kts 219°
2026-04-23 06:43 -43.48457 172.75955 18326 ft 247 kts 219°
2026-04-23 06:43 -43.49701 172.74316 18324 ft 247 kts 219°
2026-04-23 06:44 -43.50944 172.72675 18324 ft 247 kts 219°
2026-04-23 06:44 -43.52171 172.71052 18323 ft 247 kts 219°
2026-04-23 06:44 -43.53422 172.69397 18323 ft 247 kts 219°
2026-04-23 06:44 -43.54664 172.67760 18319 ft 247 kts 219°
2026-04-23 06:45 -43.55892 172.66135 18320 ft 247 kts 219°
2026-04-23 06:45 -43.57135 172.64486 18320 ft 247 kts 219°
2026-04-23 06:45 -43.58363 172.62858 18322 ft 247 kts 219°
2026-04-23 06:45 -43.59597 172.61224 18337 ft 246 kts 219°
2026-04-23 06:46 -43.60837 172.59576 18343 ft 246 kts 219°
2026-04-23 06:46 -43.62065 172.57951 18339 ft 246 kts 219°
2026-04-23 06:46 -43.63301 172.56306 18340 ft 246 kts 219°
2026-04-23 06:46 -43.64525 172.54677 18340 ft 245 kts 219°
2026-04-23 06:47 -43.65764 172.53032 18341 ft 245 kts 219°
2026-04-23 06:47 -43.66995 172.51393 18343 ft 245 kts 219°
2026-04-23 06:47 -43.68211 172.49771 18343 ft 245 kts 219°
2026-04-23 06:47 -43.69450 172.48119 18344 ft 245 kts 219°
2026-04-23 06:48 -43.70681 172.46477 18344 ft 245 kts 219°
2026-04-23 06:48 -43.71894 172.44861 18344 ft 245 kts 219°
2026-04-23 06:48 -43.73125 172.43217 18344 ft 245 kts 219°
2026-04-23 06:48 -43.74350 172.41582 18347 ft 245 kts 219°
2026-04-23 06:49 -43.75571 172.39949 18336 ft 245 kts 219°
2026-04-23 06:49 -43.76806 172.38304 18339 ft 245 kts 219°
2026-04-23 06:49 -43.78040 172.36653 18335 ft 245 kts 219°
2026-04-23 06:49 -43.79250 172.35029 18343 ft 245 kts 219°
2026-04-23 06:50 -43.80479 172.33383 18344 ft 245 kts 219°
2026-04-23 06:50 -43.81711 172.31731 18344 ft 245 kts 219°
2026-04-23 06:50 -43.82938 172.30084 18342 ft 245 kts 219°
2026-04-23 06:50 -43.84153 172.28455 18340 ft 245 kts 219°
2026-04-23 06:51 -43.85389 172.26797 18340 ft 246 kts 219°
2026-04-23 06:51 -43.86607 172.25157 18342 ft 246 kts 219°
2026-04-23 06:51 -43.87836 172.23505 18340 ft 246 kts 219°
2026-04-23 06:51 -43.89067 172.21850 18345 ft 246 kts 219°
2026-04-23 06:52 -43.90280 172.20219 18342 ft 246 kts 219°
2026-04-23 06:52 -43.91520 172.18547 18342 ft 246 kts 219°
2026-04-23 06:52 -43.92733 172.16911 18343 ft 246 kts 219°
2026-04-23 06:52 -43.93958 172.15259 18342 ft 246 kts 219°
2026-04-23 06:53 -43.95188 172.13603 18342 ft 246 kts 219°
2026-04-23 06:53 -43.96417 172.11948 18343 ft 245 kts 219°
2026-04-23 06:53 -43.97629 172.10309 18341 ft 245 kts 219°
2026-04-23 06:53 -43.98850 172.08654 18344 ft 245 kts 219°
2026-04-23 06:54 -44.00070 172.07001 18345 ft 244 kts 219°
2026-04-23 06:54 -44.01286 172.05353 18345 ft 244 kts 219°
2026-04-23 06:54 -44.02508 172.03698 18346 ft 244 kts 219°
2026-04-23 06:54 -44.03708 172.02069 18342 ft 244 kts 219°
2026-04-23 06:55 -44.04922 172.00419 18345 ft 244 kts 219°
2026-04-23 06:55 -44.06142 171.98780 18346 ft 242 kts 217°
2026-04-23 06:55 -44.07520 171.97510 18347 ft 235 kts 204°
2026-04-23 06:55 -44.08964 171.96435 18343 ft 235 kts 203°
2026-04-23 06:56 -44.10389 171.95341 18346 ft 236 kts 205°
2026-04-23 06:56 -44.11802 171.94143 18346 ft 237 kts 207°
2026-04-23 06:56 -44.13190 171.92889 18346 ft 238 kts 208°
2026-04-23 06:56 -44.14581 171.91632 18345 ft 238 kts 209°
2026-04-23 06:57 -44.15977 171.90374 18346 ft 238 kts 208°
2026-04-23 06:57 -44.17364 171.89131 18346 ft 238 kts 208°
2026-04-23 06:57 -44.18741 171.87896 18346 ft 238 kts 208°
2026-04-23 06:57 -44.20129 171.86650 18344 ft 237 kts 208°
2026-04-23 06:58 -44.21519 171.85405 18346 ft 237 kts 208°
2026-04-23 06:58 -44.22909 171.84157 18346 ft 237 kts 208°
2026-04-23 06:58 -44.24298 171.82911 18346 ft 237 kts 208°
2026-04-23 06:58 -44.25687 171.81664 18346 ft 237 kts 208°
2026-04-23 06:59 -44.27075 171.80416 18347 ft 237 kts 208°
2026-04-23 06:59 -44.28461 171.79169 18346 ft 237 kts 208°
2026-04-23 06:59 -44.29831 171.77935 18346 ft 237 kts 208°
2026-04-23 06:59 -44.31235 171.76670 18348 ft 237 kts 208°
2026-04-23 07:00 -44.32608 171.75435 18346 ft 237 kts 209°
2026-04-23 07:00 -44.33995 171.74182 18348 ft 237 kts 209°
2026-04-23 07:00 -44.35385 171.72929 18349 ft 237 kts 209°
2026-04-23 07:00 -44.36769 171.71680 18351 ft 237 kts 209°
2026-04-23 07:01 -44.38141 171.70442 18350 ft 237 kts 209°
2026-04-23 07:01 -44.39527 171.69191 18349 ft 237 kts 209°
2026-04-23 07:01 -44.40914 171.67936 18349 ft 237 kts 209°
2026-04-23 07:01 -44.42304 171.66680 18349 ft 237 kts 209°
2026-04-23 07:02 -44.43671 171.65440 18339 ft 237 kts 209°
2026-04-23 07:02 -44.45055 171.64192 18345 ft 237 kts 210°
2026-04-23 07:02 -44.46440 171.62937 18350 ft 237 kts 209°
2026-04-23 07:02 -44.47827 171.61682 18349 ft 237 kts 209°
2026-04-23 07:03 -44.49213 171.60423 18351 ft 237 kts 210°
2026-04-23 07:03 -44.50603 171.59163 18351 ft 237 kts 210°
2026-04-23 07:03 -44.51987 171.57904 18352 ft 237 kts 210°
2026-04-23 07:03 -44.53354 171.56663 18352 ft 237 kts 210°
2026-04-23 07:04 -44.54741 171.55404 18352 ft 237 kts 210°
2026-04-23 07:04 -44.55827 171.54413 18352 ft 237 kts 210°
2026-04-23 07:04 -44.57214 171.53149 18352 ft 237 kts 210°
2026-04-23 07:04 -44.58590 171.51896 18352 ft 238 kts 210°
2026-04-23 07:05 -44.59995 171.50616 18352 ft 237 kts 210°
2026-04-23 07:05 -44.61365 171.49366 18352 ft 237 kts 210°
2026-04-23 07:05 -44.62750 171.48101 18352 ft 238 kts 210°
2026-04-23 07:05 -44.64139 171.46835 18352 ft 237 kts 210°
2026-04-23 07:06 -44.65529 171.45565 18352 ft 238 kts 210°
2026-04-23 07:06 -44.66915 171.44300 18352 ft 238 kts 210°
2026-04-23 07:06 -44.68286 171.43048 18351 ft 238 kts 210°
2026-04-23 07:06 -44.69670 171.41781 18353 ft 237 kts 210°
2026-04-23 07:07 -44.71057 171.40509 18354 ft 237 kts 210°
2026-04-23 07:07 -44.72453 171.39232 18354 ft 237 kts 210°
2026-04-23 07:07 -44.73825 171.37974 18354 ft 237 kts 210°
2026-04-23 07:07 -44.75208 171.36706 18356 ft 237 kts 210°
2026-04-23 07:08 -44.76591 171.35438 18355 ft 237 kts 210°
2026-04-23 07:08 -44.77978 171.34164 18355 ft 238 kts 210°
2026-04-23 07:08 -44.79363 171.32891 18355 ft 238 kts 210°
2026-04-23 07:08 -44.80750 171.31616 18353 ft 238 kts 210°
2026-04-23 07:09 -44.82135 171.30342 18354 ft 238 kts 210°
2026-04-23 07:09 -44.83503 171.29084 18354 ft 237 kts 210°
2026-04-23 07:09 -44.84887 171.27809 18354 ft 238 kts 210°
2026-04-23 07:09 -44.86272 171.26533 18354 ft 237 kts 210°
2026-04-23 07:10 -44.87656 171.25253 18354 ft 237 kts 210°
2026-04-23 07:10 -44.89035 171.23975 18354 ft 237 kts 210°
2026-04-23 07:10 -44.90412 171.22700 18357 ft 236 kts 210°
2026-04-23 07:10 -44.91789 171.21427 18357 ft 236 kts 210°
2026-04-23 07:11 -44.93161 171.20159 18353 ft 236 kts 210°
2026-04-23 07:11 -44.94520 171.18904 18351 ft 235 kts 211°
2026-04-23 07:11 -44.95893 171.17635 18354 ft 235 kts 211°
2026-04-23 07:12 -44.98634 171.15095 18357 ft 235 kts 211°
2026-04-23 07:12 -44.99983 171.13845 18357 ft 235 kts 211°
2026-04-23 07:12 -45.00984 171.12916 18357 ft 235 kts 210°
2026-04-23 07:12 -45.02355 171.11646 18355 ft 235 kts 211°
2026-04-23 07:13 -45.03724 171.10374 18357 ft 235 kts 211°
2026-04-23 07:13 -45.05088 171.09108 18357 ft 235 kts 211°
2026-04-23 07:13 -45.06456 171.07839 18357 ft 235 kts 211°
2026-04-23 07:13 -45.07806 171.06584 18357 ft 235 kts 211°
2026-04-23 07:14 -45.09175 171.05311 18357 ft 235 kts 211°
2026-04-23 07:14 -45.10539 171.04042 18357 ft 235 kts 211°
2026-04-23 07:14 -45.11907 171.02767 18357 ft 235 kts 211°
2026-04-23 07:14 -45.13275 171.01493 18357 ft 235 kts 211°
2026-04-23 07:15 -45.14648 171.00212 18357 ft 236 kts 211°
2026-04-23 07:15 -45.15666 170.99264 18357 ft 236 kts 211°
2026-04-23 07:15 -45.17023 170.98002 18357 ft 236 kts 211°
2026-04-23 07:15 -45.18396 170.96725 18360 ft 236 kts 211°
2026-04-23 07:16 -45.19775 170.95438 18360 ft 236 kts 211°
2026-04-23 07:16 -45.21154 170.94151 18360 ft 237 kts 211°
2026-04-23 07:16 -45.22530 170.92863 18354 ft 237 kts 211°
2026-04-23 07:16 -45.23914 170.91562 18090 ft 238 kts 212°
2026-04-23 07:17 -45.25260 170.90265 17800 ft 234 kts 212°
2026-04-23 07:17 -45.26591 170.88977 17508 ft 230 kts 212°
2026-04-23 07:17 -45.27918 170.87726 17220 ft 227 kts 211°
2026-04-23 07:17 -45.29259 170.86554 16900 ft 225 kts 208°
2026-04-23 07:18 -45.30621 170.85440 16564 ft 225 kts 208°
2026-04-23 07:18 -45.31962 170.84348 16241 ft 225 kts 208°
2026-04-23 07:18 -45.33316 170.83240 15919 ft 224 kts 208°
2026-04-23 07:18 -45.34670 170.82129 15596 ft 224 kts 208°
2026-04-23 07:19 -45.36018 170.81017 15278 ft 224 kts 208°
2026-04-23 07:19 -45.37362 170.79909 14982 ft 222 kts 208°
2026-04-23 07:19 -45.38699 170.78805 14687 ft 221 kts 208°
2026-04-23 07:19 -45.40032 170.77703 14411 ft 220 kts 208°
2026-04-23 07:20 -45.41339 170.76625 14126 ft 220 kts 209°
2026-04-23 07:20 -45.42661 170.75530 13811 ft 219 kts 209°
2026-04-23 07:20 -45.43979 170.74441 13499 ft 219 kts 209°
2026-04-23 07:20 -45.45292 170.73354 13177 ft 218 kts 209°
2026-04-23 07:21 -45.46609 170.72265 12867 ft 217 kts 209°
2026-04-23 07:21 -45.47471 170.71549 12661 ft 217 kts 210°
2026-04-23 07:21 -45.48777 170.70466 12354 ft 216 kts 210°
2026-04-23 07:21 -45.50499 170.69031 11953 ft 215 kts 210°
2026-04-23 07:22 -45.51372 170.68312 11750 ft 215 kts 210°
2026-04-23 07:22 -45.52649 170.67253 11462 ft 214 kts 210°
2026-04-23 07:22 -45.53935 170.66183 11166 ft 214 kts 210°
2026-04-23 07:22 -45.55217 170.65119 10875 ft 213 kts 210°
2026-04-23 07:23 -45.56499 170.64053 10585 ft 213 kts 210°
2026-04-23 07:23 -45.57783 170.62984 10289 ft 212 kts 210°
2026-04-23 07:23 -45.59053 170.61932 9994 ft 210 kts 210°
2026-04-23 07:23 -45.60302 170.60891 9679 ft 210 kts 211°
2026-04-23 07:24 -45.61563 170.59836 9367 ft 209 kts 211°
2026-04-23 07:24 -45.62819 170.58785 9041 ft 209 kts 211°
2026-04-23 07:24 -45.64070 170.57746 8738 ft 208 kts 211°
2026-04-23 07:24 -45.65319 170.56708 8435 ft 207 kts 211°
2026-04-23 07:25 -45.66563 170.55669 8130 ft 206 kts 211°
2026-04-23 07:25 -45.67801 170.54630 7838 ft 206 kts 212°
2026-04-23 07:25 -45.69027 170.53601 7597 ft 200 kts 213°
2026-04-23 07:25 -45.69961 170.52241 7457 ft 189 kts 237°
2026-04-23 07:26 -45.70641 170.50652 7315 ft 186 kts 238°
2026-04-23 07:26 -45.71298 170.49075 7200 ft 187 kts 238°
2026-04-23 07:26 -45.71971 170.47472 7087 ft 188 kts 238°
2026-04-23 07:26 -45.72655 170.45881 6939 ft 187 kts 238°
2026-04-23 07:27 -45.73340 170.44304 6851 ft 187 kts 236°
2026-04-23 07:27 -45.74059 170.42737 6735 ft 188 kts 236°
2026-04-23 07:27 -45.74785 170.41175 6587 ft 189 kts 236°
2026-04-23 07:27 -45.75521 170.39616 6474 ft 189 kts 236°
2026-04-23 07:28 -45.76248 170.38075 6355 ft 189 kts 236°
2026-04-23 07:28 -45.76992 170.36522 6218 ft 189 kts 236°
2026-04-23 07:28 -45.77744 170.34990 6087 ft 186 kts 236°
2026-04-23 07:28 -45.78470 170.33440 5958 ft 187 kts 237°
2026-04-23 07:29 -45.79179 170.31904 5836 ft 186 kts 237°
2026-04-23 07:29 -45.79903 170.30351 5710 ft 187 kts 237°
2026-04-23 07:29 -45.80633 170.28813 5566 ft 186 kts 237°
2026-04-23 07:29 -45.81360 170.27278 5448 ft 185 kts 237°
2026-04-23 07:30 -45.82071 170.25747 5315 ft 185 kts 238°
2026-04-23 07:30 -45.82789 170.24227 5198 ft 184 kts 237°
2026-04-23 07:30 -45.83515 170.22717 5084 ft 184 kts 237°
2026-04-23 07:30 -45.84230 170.21227 5000 ft 182 kts 237°
2026-04-23 07:31 -45.84936 170.19740 5006 ft 180 kts 237°
2026-04-23 07:31 -45.85640 170.18250 4994 ft 180 kts 238°
2026-04-23 07:31 -45.86342 170.16758 4991 ft 180 kts 238°
2026-04-23 07:31 -45.87038 170.15277 4975 ft 179 kts 238°
2026-04-23 07:32 -45.87723 170.13796 4990 ft 178 kts 238°
2026-04-23 07:32 -45.88414 170.12295 5004 ft 182 kts 238°
2026-04-23 07:32 -45.89112 170.10762 5003 ft 185 kts 238°
2026-04-23 07:32 -45.89822 170.09220 5017 ft 188 kts 238°
2026-04-23 07:33 -45.90556 170.07634 5015 ft 193 kts 238°
2026-04-23 07:33 -45.91317 170.06041 5006 ft 194 kts 237°
2026-04-23 07:33 -45.92079 170.04446 5013 ft 192 kts 237°
2026-04-23 07:33 -45.92829 170.02857 5003 ft 192 kts 238°
2026-04-23 07:34 -45.93571 170.01303 4993 ft 189 kts 238°
2026-04-23 07:34 -45.94197 169.99991 5005 ft 188 kts 238°
2026-04-23 07:34 -45.94877 169.98574 4992 ft 188 kts 238°
2026-04-23 07:34 -45.95597 169.96997 4772 ft 186 kts 239°
2026-04-23 07:35 -45.96287 169.95441 4567 ft 183 kts 239°
2026-04-23 07:35 -45.96968 169.93935 4358 ft 180 kts 238°
2026-04-23 07:35 -45.97657 169.92435 4153 ft 178 kts 238°
2026-04-23 07:35 -45.98413 169.91042 3950 ft 176 kts 219°
2026-04-23 07:36 -45.99598 169.90669 3748 ft 184 kts 173°
2026-04-23 07:36 -46.00466 169.91119 3600 ft 185 kts 161°
2026-04-23 07:36 -46.01613 169.91988 3389 ft 187 kts 154°
2026-04-23 07:36 -46.02727 169.92954 3186 ft 187 kts 154°
2026-04-23 07:37 -46.03829 169.93885 2998 ft 178 kts 155°
2026-04-23 07:37 -46.04835 169.94723 2888 ft 157 kts 156°
2026-04-23 07:37 -46.05734 169.95477 2844 ft 144 kts 155°
2026-04-23 07:37 -46.06552 169.96196 2808 ft 131 kts 152°
2026-04-23 07:38 -46.07061 169.97192 2758 ft 132 kts 94°
2026-04-23 07:38 -46.06799 169.98445 2774 ft 134 kts 67°
2026-04-23 07:38 -46.06148 169.99438 2815 ft 144 kts 18°
2026-04-23 07:38 -46.05218 169.99989 2827 ft 146 kts 18°
2026-04-23 07:39 -46.04472 170.00432 2821 ft 148 kts 18°
2026-04-23 07:39 -46.03525 170.00977 2801 ft 149 kts 17°
2026-04-23 07:39 -46.02555 170.01514 2811 ft 149 kts 17°
2026-04-23 07:39 -46.01572 170.02040 2816 ft 151 kts 16°
2026-04-23 07:40 -46.00697 170.02900 2677 ft 163 kts 53°
2026-04-23 07:40 -46.00071 170.04333 2439 ft 173 kts 58°
2026-04-23 07:40 -45.99594 170.05503 2252 ft 166 kts 58°
2026-04-23 07:40 -45.99000 170.06838 2030 ft 154 kts 54°
2026-04-23 07:41 -45.98396 170.08037 1822 ft 143 kts 54°
2026-04-23 07:41 -45.97871 170.09176 1639 ft 129 kts 56°
2026-04-23 07:41 -45.97404 170.10210 1470 ft 121 kts 54°
2026-04-23 07:41 -45.96919 170.11239 1306 ft 127 kts 53°
2026-04-23 07:42 -45.96411 170.12309 1125 ft 131 kts 53°
2026-04-23 07:42 -45.95900 170.13405 934 ft 132 kts 53°
2026-04-23 07:42 -45.95394 170.14482 751 ft 131 kts 53°
2026-04-23 07:42 -45.94890 170.15545 590 ft 125 kts 54°
2026-04-23 07:43 -45.94408 170.16569 401 ft 121 kts 56°
2026-04-23 07:43 -45.93944 170.17561 238 ft 118 kts 57°
2026-04-23 07:43 -45.93503 170.18519 93 ft 115 kts 56°
2026-04-23 07:43 -45.93064 170.19437 6 ft 102 kts 57°
2026-04-23 07:44 -45.92841 170.19908 13 ft 40 kts 57°
2026-04-23 07:44 -45.92720 170.20145 11 ft 19 kts 29°
2026-04-23 07:44 -45.92615 170.20101 11 ft 16 kts 327°
2026-04-23 07:44 -45.92580 170.20068 10 ft 4 kts 324°
2026-04-23 07:45 -45.92573 170.20061 10 ft 0 kts 327°
2026-04-23 07:46 -45.92555 170.20042 11 ft 6 kts 324°
2026-04-23 07:46 -45.92545 170.20031 11 ft 0 kts 323°
2026-04-23 07:46 -45.92530 170.20019 11 ft 4 kts 337°
2026-04-23 07:46 -45.92485 170.20029 11 ft 8 kts 26°
2026-04-23 07:47 -45.92448 170.20092 10 ft 8 kts 58°
2026-04-23 07:47 -45.92442 170.20101 10 ft 0 kts 46°
2026-04-23 07:47 -45.92441 170.20105 10 ft 1 kts 57°
2026-04-23 07:48 -45.92428 170.20133 10 ft 0 kts 57°
2026-04-23 07:48 -45.92422 170.20143 10 ft 0 kts 38°
2026-04-23 07:48 -45.92417 170.20140 10 ft 2 kts 344°
2026-04-23 07:48 -45.92399 170.20126 10 ft 1 kts 326°
2026-04-23 07:49 -45.92389 170.20116 10 ft 1 kts 329°
2026-04-23 07:49 -45.92388 170.20115 10 ft 0 kts 327°
2026-04-23 07:50 -45.92388 170.20116 10 ft 0 kts 327°
2026-04-23 07:50 -45.92388 170.20115 10 ft 0 kts 327°